Погода Завитая

Погода Завитая : погода сейчас, прогноз погоды и архив. Всё, что Вы хотите узнать о погоде Завитая!

Поиск расширенной информации на нашем сайте:

Другие новости

Новости СМИ2

Главная страница сайта

Новости сайта

03.07.2017

Напоминаем, что на нашем специализированном сайте Метеоцентр.Азия вы можете получить высокодетализированные автоматические прогнозы погоды по пунктам России, СНГ и мира в авиационном формате (включающие направление и скорость ветра, видимость, явления погоды, количество и форму облачности, нижнюю и верхнюю границу облачности).


Погода Завитая - сегодня

Время (UTC), дата Ветер
(°,м/с) 
Видим.   Явления Облачность Т
(°С)
Тd
(°С)
f(%) Тe
(°С)
Pmin
(гПа)
dP
(гПа)
Po
(мм)
O2
(г/м3)
Тmin Tmax R s Состояние
почвы
09 16.04.18 240 (ЮЗ) 5{12}  20000 м    1/0 верхняя 
[Ci fib]
+14.5 -11.1 16 +14  1004.2  -0.3  732  281           
15 16.04.18 210 (ЮЗ) 20000 м    4/0 средняя, верхняя 
[Ac trans|Ci fib]
+7.1 -8.5 32 +7  1006.3  748  295           
18 16.04.18 140 (ЮВ) 20000 м    3/0 верхняя 
[Ci fib]
+3.9 -8.5 40 +3  1004.7  -1.8  732  291           
00 17.04.18 160 (Ю) 20000 м    1/0 верхняя 
[Ci fib]
+10.1 -6.3 31 +10  1003.7  -0.1  731  285  +2.4        влажная 
03 17.04.18 240 (ЮЗ) 20000 м    6/0 средняя, верхняя 
[Ac trans|Ci fib]
+15.4 -5.7 23 +16  1003  -0.2  731  279           
06 17.04.18 230 (ЮЗ) 4000 м  дым  8/0 средняя, верхняя 
[Ac trans|Ci fib]
+17.5 -5.1 21 +18  1002.3  -0.5  731  277           
09 17.04.18 310 (СЗ) 4000 м  дым  9/3 1000 м средняя, верхняя 
[Sc|Ac trans|Ci fib]
+15.7 -4.3 25 +16  1002.9  0.4  731  279           
15 17.04.18 350 (С) 20000 м    6/0 средняя, верхняя 
[Ac trans|Ci fib]
+7.5 -7.8 33 +8  1006.6  0.8  733  288           
18 17.04.18 330 (СЗ) 20000 м    1/0 верхняя 
[Ci fib]
+5 -10.8 31 +5  1007.3  0.4  734  291           
21 17.04.18 290 (З) 20000 м    1/0 верхняя 
[Ci fib]
+0.5 -11 42 +1  1009.3  1.5  735  297           
00 18.04.18 330 (СЗ) 20000 м    6/0 верхняя 
[Ci fib]
+7 -9.9 29 +7  1010.1  1.4  736  290  +0.4        влажная 
03 18.04.18 320 (СЗ) 20000 м    1/0 верхняя 
[Ci fib]
+11.7 -13.3 16 +11  1009.4  -0.2  736  285           
06 18.04.18 010 (С) 20000 м    3/0 верхняя 
[Ci fib]
+13.2 -12.9 15 +14  1008  -1.3  735  283           
09 18.04.18 340 (С) 20000 м    5/0 верхняя 
[Ci fib]
+13.1 -13 15 +14  1007.2  -0.7  734  283           
15 18.04.18 240 (ЮЗ) 20000 м    1/0 верхняя 
[Ci fib]
+0.2 -9.5 48 +1  1008.7  0.2  734  297           
18 18.04.18 тихо ()   20000 м    1/0 верхняя 
[Ci fib]
-0.2 -9.6 49 -0  1008.6  -0.3  734  297           
21 18.04.18 тихо ()   4000 м  дым  10/10 1000 м 
[Sc]
-0.5 -6.7 63 -1  1009.2  0.6  735  297           
00 19.04.18 тихо ()   4000 м  дым  10/3 1000 м средняя, верхняя 
[Sc|Ac trans|Ci fib]
+6.1 -6.8 39 +6  1009.9  1.4  736  291  -2.1        влажная 
03 19.04.18 260 (З) 4000 м  дым  ясно 
+15 -10.7 16 +16  1008.5  -0.4  735  282           
06 19.04.18 230 (ЮЗ) 20000 м    ясно 
+17.6 -5 21 +18  1006  -2.3  734  278           
09 19.04.18 210 (ЮЗ) 4{10}  20000 м    3/0 средняя, верхняя 
[Ac trans|Ci fib]
+18.1 -3.4 23 +18  1004.8  -1.1  733  277           
15 19.04.18 020 (С) 20000 м    5/3 1000 м средняя 
[Sc|Ac trans]
+7 -3 49 +7  1010.2  1.8  736  289           
18 19.04.18 030 (СВ) 20000 м    10/4 1000 м средняя 
[Sc|Ac trans]
+5.4 -3.2 54 +5  1011.9  1.4  737  292           
21 19.04.18 030 (СВ) 4000 м  дым  10/3 1000 м средняя, верхняя 
[Sc|Ac trans|Ci fib]
+4.3 -4 55 +3  1012.1  0.1  737  293           
00 20.04.18 050 (СВ) 4000 м  дым  10/0 верхняя 
[Cs]
+8.5 -3.8 42 +7  1010.2  -1.4  736  288  +4.3        влажная 
Время (UTC), дата Ветер
(°,м/с) 
Видим.   Явления Облачность Т
(°С)
Тd
(°С)
f(%) Тe
(°С)
Pmin
(гПа)
dP
(гПа)
Po
(мм)
O2
(г/м3)
Тmin Tmax R s Состояние
почвы

Для получения пояснительной информации подведите курсор к названию столбца.

ПОГОДА Завитая - архив

Всё, что Вы хотите узнать о погоде Завитая - удобно и подробно!

Выберите нужную дату (начиная с 1 января 2015* года) и нажмите кнопку "Найти".
Будут отображены архивные сводки погоды по пункту Завитая, начиная с указанной даты.


Отображать данные в формате CSV (для использования в таблицах Excel)


Внимание! Наш архив погоды предназначен исключительно для личного некоммерческого использования в познавательных целях. Если Вам необходимы официальные справки о состоянии погоды (для производственных, юридических, коммерческих и т.п. целей), обращайтесь в органы Росгидромета.

*Примечание: данная дата относится к архиву по метеостанциям СССР (Россия, СНГ, Балтия).
Архив по метеостанциям Зарубежной Европы и Азии (кроме Китая) хранится 10 дней, по другим регионам земного шара (Китай, Африка, Америка, Австралия, Океания) - 1 день.

Завитая - район местоположения метеостанции


Название, широта, долгота, высота метеостанции:
Завитая 50.1°ш. 129.5°д. 241 м над ур. моря [Российская Федерация]

Дополнительная информация

В oтличие oт бoльшинства пoгoдных сайтoв мы публикуем пoдрoбную метеoинфoрмацию в детальнoм прoфессиoнальнoм фoрмате.

Характеристики температуры и влажнoсти вoздуха измеряются на высoте 2 м в тени вдали oт зданий и деревьев.
Скoрoсть ветра измеряется на высoте 10 м (на урoвне рoста челoвека скoрoсть ветра ниже в 1.5-2 раза). Если метеoстанция нахoдится в гoрoде или в лесу, тo скoрoсть ветра занижена на 2-4 м/с пo сравнению с oткрытым местoм. Скoрoсть ветра над акватoриями крупных рек и oзёр, а также на вершинах хoлмoв на 2-5 м/с выше, чем в oбычных услoвиях.
Атмoсфернoе давление в разных тoчках местнoсти мoжет значительнo oтличаться oт давления на метеoстанции, в зависимoсти oт услoвий рельефа (при пoдъёме на 10 м давление пoнижается примернo на 1 мм рт.ст.).